Tracking 29782 objects as of 13-Oct-2024
HD Live streaming from Space Station
objects crossing your sky now

HYPSO-2

Track HYPSO-2 now!
10-day predictions


NORAD ID: 60531
Int'l Code: 2024-149BR
Perigee: 597.3 km
Apogee: 598.8 km
Inclination: 97.7 °
Period: 96.5 minutes
Semi major axis: 6969 km
RCS: Unknown
Launch date: August 16, 2024
Source: Norway (NOR)
Launch site: AIR FORCE WESTERN TEST RANGE (AFWTR)
Your satellite tracking list
Your tracking list is empty




NASA's NSSDC Master Catalog

Two Line Element Set (TLE):
1 60531U 24149BR  24286.78304982  .00009550  00000-0  94095-3 0  9997
2 60531  97.7424   1.2587 0001039 131.0587 229.0722 14.92246643  8486
Source of the keplerian elements: AFSPC